AAL901 KMEM-KIND

Flight info

Callsign AAL901
Flight time 1h 0m
Altitude 39000
Route CRSON7 HUMMS DCT PXV DCT EMBRR SMUKE3
Aircraft A20N/M-SDE2E3FGHIRWXY/LB1

Departure

Time 2026-05-06 02:32
Airport Memphis International Airport (KMEM)

Arrival

Time 2026-05-06 03:32
Airport Indianapolis International Airport (KIND)
Time Latitude Longitude Altitude Speed Heading
2026-05-06 02:13 35.04038 -89.97985 315 ft 0 kts 30°
2026-05-06 02:21 35.04031 -89.97990 314 ft 3 kts 30°
2026-05-06 02:21 35.04018 -89.98003 315 ft 2 kts 81°
2026-05-06 02:22 35.04018 -89.98013 314 ft 0 kts 117°
2026-05-06 02:24 35.04014 -89.98013 314 ft 1 kts 169°
2026-05-06 02:24 35.03986 -89.98020 314 ft 8 kts 200°
2026-05-06 02:24 35.03928 -89.98032 313 ft 0 kts 178°
2026-05-06 02:24 35.03907 -89.98039 312 ft 5 kts 221°
2026-05-06 02:25 35.03887 -89.98117 310 ft 15 kts 269°
2026-05-06 02:25 35.03864 -89.98262 310 ft 14 kts 220°
2026-05-06 02:25 35.03818 -89.98280 310 ft 6 kts 202°
2026-05-06 02:25 35.03795 -89.98323 313 ft 7 kts 264°
2026-05-06 02:26 35.03789 -89.98415 310 ft 12 kts 269°
2026-05-06 02:26 35.03814 -89.98482 311 ft 6 kts 328°
2026-05-06 02:26 35.03879 -89.98491 309 ft 14 kts 360°
2026-05-06 02:26 35.03995 -89.98493 309 ft 18 kts 358°
2026-05-06 02:27 35.04129 -89.98497 302 ft 20 kts 360°
2026-05-06 02:27 35.04269 -89.98501 303 ft 20 kts 360°
2026-05-06 02:27 35.04405 -89.98500 302 ft 20 kts
2026-05-06 02:27 35.04542 -89.98507 302 ft 19 kts 360°
2026-05-06 02:28 35.04671 -89.98509 304 ft 18 kts 359°
2026-05-06 02:28 35.04793 -89.98511 302 ft 18 kts 359°
2026-05-06 02:28 35.04918 -89.98513 303 ft 18 kts 359°
2026-05-06 02:28 35.04953 -89.98514 299 ft 0 kts 359°
2026-05-06 02:29 35.05013 -89.98514 300 ft 16 kts
2026-05-06 02:29 35.05049 -89.98517 303 ft 2 kts 332°
2026-05-06 02:30 35.05052 -89.98549 301 ft 4 kts 245°
2026-05-06 02:30 35.05031 -89.98568 304 ft 8 kts 207°
2026-05-06 02:30 35.04947 -89.98629 304 ft 13 kts 230°
2026-05-06 02:30 35.04905 -89.98715 304 ft 11 kts 236°
2026-05-06 02:31 35.04763 -89.98752 301 ft 41 kts 178°
2026-05-06 02:31 35.04267 -89.98730 302 ft 103 kts 179°
2026-05-06 02:31 35.03362 -89.98717 323 ft 153 kts 180°
2026-05-06 02:31 35.02234 -89.98689 596 ft 169 kts 179°
2026-05-06 02:32 35.01050 -89.98642 1206 ft 165 kts 179°
2026-05-06 02:32 34.99969 -89.98572 2050 ft 155 kts 183°
2026-05-06 02:32 34.98788 -89.98446 2351 ft 190 kts 174°
2026-05-06 02:32 34.97426 -89.97809 2718 ft 226 kts 161°
2026-05-06 02:33 34.95984 -89.96850 3312 ft 244 kts 159°
2026-05-06 02:33 34.94982 -89.96117 3768 ft 254 kts 154°
2026-05-06 02:33 34.92819 -89.91527 5543 ft 301 kts 101°
2026-05-06 02:34 34.92677 -89.88949 6351 ft 308 kts 96°
2026-05-06 02:34 34.92597 -89.86322 7153 ft 313 kts 94°
2026-05-06 02:34 34.92875 -89.83666 7948 ft 321 kts 70°
2026-05-06 02:34 34.93840 -89.81200 8789 ft 324 kts 58°
2026-05-06 02:35 34.94999 -89.78831 9657 ft 327 kts 53°
2026-05-06 02:35 34.96482 -89.76736 10338 ft 329 kts 33°
2026-05-06 02:35 34.98527 -89.75468 10647 ft 335 kts
2026-05-06 02:35 35.00858 -89.75252 11054 ft 340 kts 351°
2026-05-06 02:36 35.03245 -89.75369 11707 ft 345 kts 348°
2026-05-06 02:36 35.05653 -89.75519 12527 ft 348 kts 348°
2026-05-06 02:36 35.08079 -89.75659 13385 ft 350 kts 348°
2026-05-06 02:36 35.10520 -89.75792 14153 ft 353 kts 347°
2026-05-06 02:37 35.12953 -89.75929 14864 ft 356 kts 347°
2026-05-06 02:37 35.15440 -89.76070 15508 ft 360 kts 347°
2026-05-06 02:37 35.17982 -89.76212 15868 ft 361 kts 347°
2026-05-06 02:37 35.20466 -89.76348 15966 ft 362 kts 347°
2026-05-06 02:38 35.22989 -89.76486 15975 ft 364 kts 347°
2026-05-06 02:38 35.25521 -89.76625 15993 ft 365 kts 347°
2026-05-06 02:38 35.28071 -89.76745 15974 ft 368 kts 350°
2026-05-06 02:38 35.30660 -89.76374 15972 ft 385 kts
2026-05-06 02:39 35.33175 -89.75041 15979 ft 399 kts 20°
2026-05-06 02:39 35.35595 -89.73312 16232 ft 406 kts 22°
2026-05-06 02:39 35.38017 -89.71508 16945 ft 409 kts 23°
2026-05-06 02:39 35.40454 -89.69695 17690 ft 411 kts 22°
2026-05-06 02:40 35.42912 -89.67875 18334 ft 415 kts 22°
2026-05-06 02:40 35.45398 -89.66042 18923 ft 418 kts 22°
2026-05-06 02:40 35.47897 -89.64201 19542 ft 420 kts 22°
2026-05-06 02:40 35.50412 -89.62351 20167 ft 423 kts 22°
2026-05-06 02:41 35.52952 -89.60482 20718 ft 428 kts 22°
2026-05-06 02:41 35.55514 -89.58597 21304 ft 431 kts 22°
2026-05-06 02:41 35.58092 -89.56697 21884 ft 434 kts 22°
2026-05-06 02:41 35.60690 -89.54784 22445 ft 437 kts 22°
2026-05-06 02:42 35.63313 -89.52873 22988 ft 440 kts 22°
2026-05-06 02:42 35.65958 -89.50955 23502 ft 443 kts 22°
2026-05-06 02:42 35.68624 -89.49022 23922 ft 446 kts 22°
2026-05-06 02:42 35.71313 -89.47071 24341 ft 450 kts 22°
2026-05-06 02:43 35.73981 -89.45133 24744 ft 453 kts 22°
2026-05-06 02:43 35.76706 -89.43152 25135 ft 458 kts 22°
2026-05-06 02:43 35.79464 -89.41147 25470 ft 463 kts 22°
2026-05-06 02:43 35.82245 -89.39121 25869 ft 466 kts 22°
2026-05-06 02:44 35.85044 -89.37080 26272 ft 469 kts 22°
2026-05-06 02:44 35.87857 -89.35027 26661 ft 472 kts 23°
2026-05-06 02:44 35.90690 -89.32959 27047 ft 475 kts 23°
2026-05-06 02:44 35.93548 -89.30870 27421 ft 478 kts 23°
2026-05-06 02:45 35.96419 -89.28769 27781 ft 481 kts 23°
2026-05-06 02:45 35.99306 -89.26656 28126 ft 484 kts 23°
2026-05-06 02:45 36.02210 -89.24529 28467 ft 487 kts 23°
2026-05-06 02:45 36.05131 -89.22387 28839 ft 488 kts 23°
2026-05-06 02:46 36.08051 -89.20242 29296 ft 489 kts 23°
2026-05-06 02:46 36.10981 -89.18089 29627 ft 491 kts 24°
2026-05-06 02:46 36.13931 -89.15921 29917 ft 495 kts 24°
2026-05-06 02:46 36.16894 -89.13741 30199 ft 497 kts 23°
2026-05-06 02:47 36.19867 -89.11550 30573 ft 496 kts 23°
2026-05-06 02:47 36.22792 -89.09391 30985 ft 495 kts 23°
2026-05-06 02:47 36.25752 -89.07205 31352 ft 497 kts 20°
2026-05-06 02:48 36.31774 -89.02765 31678 ft 506 kts 21°
2026-05-06 02:48 36.34786 -89.00531 32154 ft 503 kts 20°
2026-05-06 02:48 36.37778 -88.98311 32623 ft 500 kts 20°
2026-05-06 02:48 36.39797 -88.96813 32913 ft 499 kts 20°
2026-05-06 02:49 36.42767 -88.94609 33303 ft 497 kts 20°
2026-05-06 02:49 36.45734 -88.92406 33689 ft 496 kts 19°
2026-05-06 02:49 36.48654 -88.90238 34013 ft 495 kts 19°
2026-05-06 02:49 36.51605 -88.88043 34359 ft 494 kts 19°
2026-05-06 02:50 36.54545 -88.85854 34689 ft 492 kts 19°
2026-05-06 02:50 36.57479 -88.83668 35008 ft 491 kts 19°
2026-05-06 02:50 36.60406 -88.81486 35291 ft 490 kts 19°
2026-05-06 02:50 36.63331 -88.79304 35551 ft 490 kts 19°
2026-05-06 02:51 36.66250 -88.77124 35800 ft 490 kts 18°
2026-05-06 02:51 36.69171 -88.74941 36043 ft 489 kts 18°
2026-05-06 02:51 36.72088 -88.72759 36283 ft 489 kts 18°
2026-05-06 02:51 36.75003 -88.70575 36548 ft 489 kts 18°
2026-05-06 02:52 36.77923 -88.68387 36758 ft 489 kts 18°
2026-05-06 02:52 36.80846 -88.66195 36978 ft 489 kts 18°
2026-05-06 02:52 36.83756 -88.64008 37215 ft 489 kts 18°
2026-05-06 02:52 36.86668 -88.61818 37451 ft 488 kts 18°
2026-05-06 02:53 36.89577 -88.59630 37662 ft 487 kts 18°
2026-05-06 02:53 36.92481 -88.57443 37888 ft 487 kts 17°
2026-05-06 02:53 36.95380 -88.55258 38084 ft 486 kts 17°
2026-05-06 02:53 36.98276 -88.53073 38308 ft 486 kts 17°
2026-05-06 02:54 37.01172 -88.50887 38521 ft 486 kts 17°
2026-05-06 02:54 37.04065 -88.48701 38666 ft 486 kts 17°
2026-05-06 02:54 37.06958 -88.46513 38786 ft 486 kts 17°
2026-05-06 02:54 37.09848 -88.44326 38547 ft 485 kts 17°
2026-05-06 02:55 37.12729 -88.42139 38099 ft 482 kts 17°
2026-05-06 02:55 37.15551 -88.39995 37569 ft 480 kts 17°
2026-05-06 02:55 37.18411 -88.37826 36945 ft 480 kts 18°
2026-05-06 02:55 37.21274 -88.35655 36290 ft 482 kts 18°
2026-05-06 02:56 37.24152 -88.33470 35648 ft 485 kts 18°
2026-05-06 02:56 37.27054 -88.31266 34948 ft 489 kts 19°
2026-05-06 02:56 37.29973 -88.29044 34304 ft 492 kts 19°
2026-05-06 02:56 37.32906 -88.26806 33672 ft 494 kts 20°
2026-05-06 02:57 37.35848 -88.24560 33082 ft 496 kts 20°
2026-05-06 02:57 37.38806 -88.22300 32855 ft 499 kts 20°
2026-05-06 02:57 37.41779 -88.20027 32836 ft 501 kts 20°
2026-05-06 02:58 37.47745 -88.15452 32851 ft 502 kts 20°
2026-05-06 02:58 37.53704 -88.10877 32858 ft 502 kts 21°
2026-05-06 02:59 37.59667 -88.06293 32861 ft 501 kts 20°
2026-05-06 02:59 37.65601 -88.01721 32857 ft 499 kts 20°
2026-05-06 03:00 37.71527 -87.97149 32874 ft 499 kts 20°
2026-05-06 03:00 37.77436 -87.92582 32851 ft 498 kts 20°
2026-05-06 03:01 37.83345 -87.88004 32854 ft 498 kts 20°
2026-05-06 03:01 37.89250 -87.83421 32865 ft 498 kts 21°
2026-05-06 03:02 37.95118 -87.78859 32877 ft 498 kts 21°
2026-05-06 03:02 38.01021 -87.74260 32864 ft 498 kts 21°
2026-05-06 03:03 38.06922 -87.69654 32870 ft 498 kts 21°
2026-05-06 03:03 38.12819 -87.65042 32359 ft 496 kts 21°
2026-05-06 03:03 38.15754 -87.62742 31783 ft 495 kts 21°
2026-05-06 03:04 38.18679 -87.60449 31194 ft 494 kts 21°
2026-05-06 03:04 38.21604 -87.58154 30608 ft 493 kts 21°
2026-05-06 03:04 38.24515 -87.55867 30107 ft 491 kts 21°
2026-05-06 03:04 38.27409 -87.53589 29560 ft 487 kts 22°
2026-05-06 03:05 38.30284 -87.51326 28993 ft 484 kts 22°
2026-05-06 03:05 38.33133 -87.49081 28446 ft 481 kts 22°
2026-05-06 03:05 38.35966 -87.46848 27923 ft 477 kts 22°
2026-05-06 03:05 38.38778 -87.44628 27411 ft 473 kts 22°
2026-05-06 03:06 38.41571 -87.42422 26901 ft 470 kts 23°
2026-05-06 03:06 38.44307 -87.40260 26408 ft 467 kts 23°
2026-05-06 03:06 38.47061 -87.38081 25922 ft 464 kts 24°
2026-05-06 03:06 38.49799 -87.35913 25495 ft 460 kts 24°
2026-05-06 03:07 38.52513 -87.33761 25212 ft 458 kts 24°
2026-05-06 03:07 38.55224 -87.31614 24922 ft 459 kts 23°
2026-05-06 03:07 38.57932 -87.29466 24643 ft 458 kts 24°
2026-05-06 03:07 38.60635 -87.27317 24365 ft 457 kts 24°
2026-05-06 03:08 38.63330 -87.25173 24120 ft 455 kts 24°
2026-05-06 03:08 38.66022 -87.23067 23850 ft 452 kts 22°
2026-05-06 03:08 38.68726 -87.21042 23590 ft 449 kts 22°
2026-05-06 03:08 38.71427 -87.19039 23303 ft 448 kts 22°
2026-05-06 03:09 38.74118 -87.17042 23036 ft 446 kts 22°
2026-05-06 03:09 38.76800 -87.15049 22592 ft 445 kts 22°
2026-05-06 03:09 38.79483 -87.13054 21775 ft 448 kts 23°
2026-05-06 03:09 38.82211 -87.11029 20615 ft 460 kts 24°
2026-05-06 03:10 38.85007 -87.08948 19666 ft 467 kts 25°
2026-05-06 03:10 38.87800 -87.06859 19161 ft 461 kts 25°
2026-05-06 03:10 38.90629 -87.04735 18923 ft 447 kts 25°
2026-05-06 03:10 38.93166 -87.02828 18879 ft 430 kts 25°
2026-05-06 03:11 38.95707 -87.00930 18875 ft 418 kts 24°
2026-05-06 03:11 38.98236 -86.99095 18864 ft 417 kts 24°
2026-05-06 03:11 39.00772 -86.97269 18859 ft 418 kts 24°
2026-05-06 03:11 39.03311 -86.95440 18865 ft 418 kts 24°
2026-05-06 03:12 39.05848 -86.93609 18861 ft 418 kts 24°
2026-05-06 03:12 39.08381 -86.91777 18906 ft 417 kts 24°
2026-05-06 03:12 39.10909 -86.89940 18878 ft 418 kts 25°
2026-05-06 03:12 39.13422 -86.88026 18874 ft 419 kts 26°
2026-05-06 03:13 39.15917 -86.86088 18874 ft 419 kts 26°
2026-05-06 03:13 39.18381 -86.84166 18878 ft 419 kts 26°
2026-05-06 03:13 39.20875 -86.82221 18879 ft 419 kts 26°
2026-05-06 03:13 39.23362 -86.80280 18878 ft 411 kts 26°
2026-05-06 03:14 39.25746 -86.78394 18880 ft 395 kts 28°
2026-05-06 03:14 39.27973 -86.76435 18880 ft 382 kts 30°
2026-05-06 03:14 39.30131 -86.74462 18880 ft 379 kts 31°
2026-05-06 03:14 39.32281 -86.72488 18827 ft 379 kts 30°
2026-05-06 03:15 39.34429 -86.70514 18427 ft 378 kts 31°
2026-05-06 03:15 39.36567 -86.68550 18067 ft 375 kts 31°
2026-05-06 03:15 39.38684 -86.66603 17656 ft 372 kts 31°
2026-05-06 03:15 39.40822 -86.64747 17246 ft 368 kts 26°
2026-05-06 03:16 39.43012 -86.63058 16834 ft 365 kts 25°
2026-05-06 03:16 39.45197 -86.61418 16445 ft 362 kts 24°
2026-05-06 03:16 39.47304 -86.59623 16046 ft 365 kts 36°
2026-05-06 03:16 39.49147 -86.57371 15596 ft 366 kts 41°
2026-05-06 03:17 39.50965 -86.55007 14798 ft 375 kts 38°
2026-05-06 03:17 39.53167 -86.53157 13700 ft 384 kts 17°
2026-05-06 03:17 39.55752 -86.52435 12842 ft 376 kts 354°
2026-05-06 03:17 39.58231 -86.52951 12542 ft 349 kts 333°
2026-05-06 03:18 39.60303 -86.54399 12035 ft 333 kts 318°
2026-05-06 03:18 39.62169 -86.56203 11215 ft 338 kts 315°
2026-05-06 03:18 39.64050 -86.58111 10228 ft 348 kts 315°
2026-05-06 03:18 39.65984 -86.60089 9000 ft 360 kts 315°
2026-05-06 03:19 39.67723 -86.62432 7732 ft 363 kts 301°
2026-05-06 03:19 39.68741 -86.65420 6502 ft 366 kts 282°
2026-05-06 03:19 39.68988 -86.68716 5616 ft 364 kts 271°
2026-05-06 03:19 39.69048 -86.71947 5077 ft 352 kts 271°
2026-05-06 03:20 39.68314 -86.77955 4050 ft 331 kts 241°
2026-05-06 03:20 39.66856 -86.80132 3755 ft 311 kts 216°
2026-05-06 03:20 39.64986 -86.81209 3743 ft 283 kts 190°
2026-05-06 03:21 39.63111 -86.81127 3577 ft 262 kts 161°
2026-05-06 03:21 39.61576 -86.80065 3399 ft 243 kts 139°
2026-05-06 03:21 39.60312 -86.78758 3287 ft 222 kts 136°
2026-05-06 03:21 39.59190 -86.77553 3122 ft 204 kts 135°
2026-05-06 03:22 39.58107 -86.76401 3007 ft 195 kts 135°
2026-05-06 03:22 39.57100 -86.75283 2985 ft 191 kts 127°
2026-05-06 03:22 39.56326 -86.73926 2981 ft 185 kts 117°
2026-05-06 03:22 39.55654 -86.72535 2981 ft 180 kts 115°
2026-05-06 03:23 39.54997 -86.71150 2981 ft 180 kts 115°
2026-05-06 03:23 39.54338 -86.69764 2976 ft 181 kts 115°
2026-05-06 03:23 39.53677 -86.68375 2974 ft 181 kts 115°
2026-05-06 03:23 39.53020 -86.66995 2988 ft 178 kts 114°
2026-05-06 03:24 39.52704 -86.65506 2979 ft 170 kts 84°
2026-05-06 03:24 39.52803 -86.63992 2973 ft 168 kts 76°
2026-05-06 03:24 39.52979 -86.62492 2969 ft 169 kts 76°
2026-05-06 03:24 39.53168 -86.60984 2969 ft 170 kts 76°
2026-05-06 03:25 39.53371 -86.59473 2969 ft 170 kts 76°
2026-05-06 03:25 39.53585 -86.57969 2972 ft 170 kts 75°
2026-05-06 03:25 39.53792 -86.56464 2954 ft 169 kts 75°
2026-05-06 03:25 39.53986 -86.54947 2962 ft 172 kts 75°
2026-05-06 03:26 39.54187 -86.53411 2968 ft 173 kts 75°
2026-05-06 03:26 39.54488 -86.51911 2965 ft 170 kts 65°
2026-05-06 03:26 39.54987 -86.50545 2959 ft 165 kts 57°
2026-05-06 03:26 39.55591 -86.49343 2970 ft 155 kts 50°
2026-05-06 03:27 39.56239 -86.48253 2976 ft 152 kts 48°
2026-05-06 03:27 39.56925 -86.47224 2963 ft 150 kts 43°
2026-05-06 03:27 39.57657 -86.46261 2971 ft 149 kts 41°
2026-05-06 03:27 39.58394 -86.45320 2968 ft 149 kts 41°
2026-05-06 03:28 39.59141 -86.44371 2973 ft 151 kts 41°
2026-05-06 03:28 39.59886 -86.43414 2969 ft 150 kts 41°
2026-05-06 03:28 39.60625 -86.42461 2819 ft 150 kts 41°
2026-05-06 03:28 39.61380 -86.41493 2500 ft 152 kts 42°
2026-05-06 03:29 39.62129 -86.40537 2474 ft 150 kts 41°
2026-05-06 03:29 39.62871 -86.39591 2467 ft 149 kts 42°
2026-05-06 03:29 39.63613 -86.38645 2204 ft 150 kts 41°
2026-05-06 03:29 39.64358 -86.37695 2177 ft 150 kts 41°
2026-05-06 03:30 39.65099 -86.36747 2173 ft 149 kts 42°
2026-05-06 03:30 39.65834 -86.35809 2017 ft 147 kts 42°
2026-05-06 03:30 39.66570 -86.34867 1937 ft 150 kts 42°
2026-05-06 03:30 39.67312 -86.33922 1710 ft 149 kts 42°
2026-05-06 03:31 39.68065 -86.32989 1476 ft 151 kts 43°
2026-05-06 03:31 39.68824 -86.32045 1231 ft 152 kts 44°
2026-05-06 03:31 39.69566 -86.31049 965 ft 155 kts 43°
2026-05-06 03:31 39.70328 -86.30055 810 ft 156 kts 43°
2026-05-06 03:32 39.70944 -86.29272 789 ft 74 kts 42°
2026-05-06 03:32 39.71103 -86.29063 791 ft 14 kts 45°
2026-05-06 03:32 39.71191 -86.28953 794 ft 18 kts 44°
2026-05-06 03:32 39.71238 -86.28900 793 ft 18 kts 37°